Flag for Germany Weather past 2 weeks in Osnabrück, Lower Saxony, Germany

Now
73 °F

Sunny.


Feels Like: 77 °F
Forecast: 52 / 75 °F
Wind: 3 mph from North

Location: Muenster / Osnabrueck

Current Time: Aug 1, 2015 at 4:07:59 PM

Latest Report: Aug 1, 2015 at 3:20 PM


Visibility: 10 mi

Pressure: 29.98 "Hg

Humidity: 36%

Dew point: 45 °F

Location of OsnabrückLocation

Historic Weather in Osnabrück — Graph

°F

Osnabrück temperature yesterday

Maximum temperature yesterday: 66 °F (at 2:50 PM)
Minimum temperature yesterday: 45 °F (at 5:50 AM)
Average temperature yesterday: 56 °F

Past Weeks' High & Low Weather Summary

 TemperatureHumidityPressure
High90 °F (Jul 17, 4:20 PM)100% (Jul 20, 4:50 AM)30.12 "Hg (Jul 20, 4:50 AM)
Low45 °F (Jul 31, 5:50 AM)27% (Jul 17, 5:20 PM)29.47 "Hg (Jul 25, 7:20 AM)
Average64 °F72%29.86 "Hg
* Reported Jul 17 2:20 PM — Aug 1 2:50 PM, Osnabrück, Weather by CustomWeather, © 2015

Note: Actual official high and low records may vary slightly from our data, if they occured in-between our weather recording intervals... More about our weather records

Advertising

Osnabrück weather history for previous 24 hours

 ConditionsComfort  
Time TempWeatherWind HumidityBarometerVisibility
2:50 PM
Sat, Aug 1
75 °FSunny.3 mph36%29.98 "Hg10 mi
2:20 PM73 °FPassing clouds.6 mph36%29.98 "HgN/A
1:50 PM72 °FSunny.5 mph41%29.98 "Hg10 mi
1:20 PM72 °FSunny.5 mph41%29.98 "Hg10 mi
12:50 PM72 °FSunny.3 mph44%29.98 "Hg10 mi
12:20 PM70 °FSunny.3 mph46%29.98 "Hg10 mi
11:50 AM68 °FSunny.3 mph49%30.01 "Hg10 mi
11:20 AM66 °FSunny.5 mph52%30.01 "Hg10 mi
10:50 AM66 °FPassing clouds.6 mph52%30.01 "HgN/A
10:20 AM63 °FPassing clouds.6 mph56%30.01 "HgN/A
9:50 AM63 °FPassing clouds.6 mph56%30.01 "HgN/A
9:20 AM61 °FPassing clouds.5 mph59%30.01 "HgN/A
8:50 AM59 °FSunny.5 mph68%30.01 "Hg10 mi
8:20 AM57 °FPassing clouds.5 mph67%30.01 "HgN/A
7:50 AM55 °FPassing clouds.3 mph72%30.01 "HgN/A
7:20 AM52 °FSunny.5 mph82%30.01 "Hg10 mi
6:50 AM48 °FSunny.3 mph94%30.01 "Hg10 mi
6:20 AM48 °FClear.3 mph94%30.01 "Hg10 mi
5:50 AM50 °FClear.3 mph88%30.01 "Hg10 mi
5:20 AM50 °FPassing clouds.3 mph88%30.01 "HgN/A
4:50 AM50 °FPassing clouds.3 mph88%30.04 "HgN/A
4:20 AM50 °FPassing clouds.3 mph88%30.04 "HgN/A
3:50 AM50 °FClear.3 mph82%30.04 "Hg10 mi
3:20 AM50 °FPassing clouds.3 mph88%30.04 "HgN/A
2:50 AM52 °FClear.3 mph82%30.04 "Hg10 mi
2:20 AM52 °FPassing clouds.3 mph82%30.04 "HgN/A
1:50 AM50 °FClear.5 mph88%30.04 "Hg10 mi
1:20 AM50 °FPassing clouds.3 mph88%30.07 "HgN/A
12:50 AM50 °FClear.2 mph88%30.07 "Hg10 mi
12:20 AM48 °FClear.2 mph87%30.07 "Hg10 mi
11:50 PM
Fri, Jul 31
50 °FClear.1 mph88%30.07 "Hg10 mi
11:20 PM52 °FClear.1 mph82%30.07 "Hg10 mi
10:50 PM54 °FClear.2 mph77%30.07 "Hg10 mi
10:20 PM54 °FPassing clouds.3 mph77%30.07 "HgN/A
9:50 PM55 °FSunny.2 mph72%30.07 "Hg10 mi
9:20 PM57 °FPassing clouds.3 mph67%30.07 "HgN/A
8:50 PM59 °FPassing clouds.3 mph63%30.07 "HgN/A
8:20 PM63 °FSunny.3 mph49%30.07 "Hg10 mi
7:50 PM63 °FPassing clouds.5 mph49%30.07 "HgN/A
7:20 PM64 °FPassing clouds.7 mph46%30.07 "HgN/A
6:50 PM64 °FPassing clouds.5 mph40%30.07 "HgN/A
6:20 PM64 °FPassing clouds.5 mph46%30.09 "HgN/A
5:50 PM64 °FPassing clouds.6 mph46%30.09 "HgN/A
5:20 PM64 °FPassing clouds.5 mph43%30.09 "HgN/A
4:50 PM64 °FSunny.3 mph40%30.09 "Hg10 mi
4:20 PM64 °FBroken clouds.7 mph46%30.09 "HgN/A
Weather by CustomWeather, © 2015

See weather overviewHow to use our weather pages